Flag for U.S.A. Weather past 2 weeks in Salina, Kansas, U.S.A.

Now
90 °F

Clear.


Feels Like: 90 °F
Forecast: 76 / 98 °F
Wind: 9 mph from South

Location: Salina Municipal Airport

Current Time: Jul 26, 2014 at 12:16:10 AM

Latest Report: Jul 25, 2014 at 10:53 PM


Visibility: 10 mi

Pressure: 29.73 "Hg

Humidity: 37%

Dew point: 60 °F

Location of SalinaLocation

Historic Weather in Salina — Graph

°F

Salina temperature yesterday

Maximum temperature yesterday: 106 °F (at 2:53 PM)
Minimum temperature yesterday: 78 °F (at 6:53 AM)
Average temperature yesterday: 92 °F

Past Weeks' High & Low Weather Summary

 TemperatureHumidityPressure
High106 °F (Jul 25, 2:53 PM)90% (Jul 19, 4:53 AM)30.19 "Hg (Jul 19, 4:53 AM)
Low56 °F (Jul 15, 4:53 AM)25% (Jul 25, 2:53 PM)29.67 "Hg (Jul 25, 6:53 PM)
Average79 °F59%29.97 "Hg
* Reported Jul 10 10:53 PM — Jul 25 10:53 PM, Salina, Weather by CustomWeather, © 2014

Note: Actual official high and low records may vary slightly from our data, if they occured in-between our weather recording intervals... More about our weather records

Advertising

Salina weather history for previous 24 hours

 ConditionsComfort  
Time TempWeatherWind HumidityBarometerVisibility
10:53 PM
Jul 25
90 °FClear.9 mph37%29.73 "Hg10 mi
9:53 PM89 °FClear.7 mph41%29.71 "Hg10 mi
8:53 PM95 °FSunny.7 mph34%29.69 "Hg10 mi
7:53 PM101 °FSunny.17 mph30%29.68 "Hg10 mi
6:53 PM104 °FSunny.17 mph27%29.67 "Hg10 mi
5:53 PM106 °FSunny.23 mph26%29.68 "Hg10 mi
4:53 PM105 °FSunny.17 mph26%29.69 "Hg10 mi
3:53 PM105 °FSunny.20 mph25%29.70 "Hg10 mi
2:53 PM106 °FSunny.18 mph25%29.70 "Hg10 mi
1:53 PM103 °FSunny.23 mph28%29.71 "Hg10 mi
12:53 PM101 °FSunny.28 mph31%29.73 "Hg10 mi
11:53 AM97 °FSunny.21 mph36%29.74 "Hg10 mi
10:53 AM95 °FSunny.23 mph40%29.75 "Hg10 mi
9:53 AM88 °FSunny.25 mph50%29.76 "Hg10 mi
8:53 AM86 °FSunny.25 mph55%29.79 "Hg10 mi
7:53 AM80 °FSunny.20 mph67%29.79 "Hg10 mi
6:53 AM78 °FClear.16 mph71%29.79 "Hg10 mi
5:53 AM79 °FClear.20 mph72%29.79 "Hg10 mi
4:53 AM79 °FClear.18 mph72%29.79 "Hg10 mi
3:53 AM80 °FClear.17 mph71%29.81 "Hg10 mi
2:53 AM80 °FClear.15 mph71%29.82 "Hg10 mi
1:53 AM81 °FClear.18 mph67%29.83 "Hg10 mi
12:53 AM82 °FClear.18 mph63%29.84 "Hg10 mi
Weather by CustomWeather, © 2014

See weather overviewHow to use our weather pages